Regional Weather Roundup
Issued by NWS

Home | Current Version | Previous Version | Text Only | Print | Product List | Glossary Off
Versions: 1 2 3 4 5 6 7 8 9 10 11 12 13 14 15 16 17 18 19 20 21 22 23 24 25 26

000
ASUS45 KCYS 270310
RWRWY

WYOMING REGIONAL WEATHER ROUNDUP
NATIONAL WEATHER SERVICE CHEYENNE WY
900 PM MDT THU MAY 26 2016

NOTE:  "FAIR" INDICATES FEW OR NO CLOUDS BELOW 12,000 FEET
WITH NO SIGNIFICANT WEATHER AND/OR OBSTRUCTIONS TO VISIBILITY.

WYZ001-270400-
YELLOWSTONE NATIONAL PARK

CITY           SKY/WX    TMP DP  RH WIND       PRES   REMARKS
LK YELLOWSTONE   N/A     35  34  96 CALM      30.12F
W YELLOWSTONE  NOT AVBL

$$
WYZ002>013-054>058-071-098>099-270400-
NORTHERN WYOMING

CITY           SKY/WX    TMP DP  RH WIND       PRES   REMARKS
JACKSON        FAIR      46  36  66 NW7       30.00R
CODY           CLOUDY    54  41  62 CALM      29.97R
GREYBULL       FAIR      57  44  62 NW5       29.91S
WORLAND        FAIR      56  42  59 N5        29.92R
SHERIDAN       CLOUDY    52  46  80 CALM      29.91R
BUFFALO        FAIR      52  42  69 NW3       29.95R
GILLETTE       FAIR      47  38  71 NW6       29.91S
HULETT         FAIR      55  39  54 NW6       29.91S
NEWCASTLE      FAIR      59  32  36 NW10      29.89R

$$
WYZ014>020-022>026-101>103-270400-
CENTRAL WYOMING

CITY           SKY/WX    TMP DP  RH WIND       PRES   REMARKS
BIG PINEY      FAIR      52  33  48 N14       30.00R
PINEDALE       FAIR      48  32  53 N13       30.01R
DUBOIS         MOCLDY    46  34  61 E8        30.02R
LANDER         FAIR      52  38  58 SW7       29.96R
RIVERTON       CLOUDY    53  38  56 W5        29.99R
CASPER         FAIR      45  38  76 N9        29.94R
DOUGLAS          N/A    N/A N/A N/A MISG      29.93R

$$
WYZ021-027>030-104>119-270400-
SOUTHERN WYOMING

CITY           SKY/WX    TMP DP  RH WIND       PRES   REMARKS
EVANSTON       FAIR      44  35  70 W14       30.04R
KEMMERER         N/A     46  36  66 W8        30.03R
FORT BRIDGER   PTCLDY    48  41  76 W15G24    30.05R
ROCK SPRINGS   FAIR      53  27  36 W15       29.95R
DIXON          CLOUDY    54  32  43 S5        29.97R
RAWLINS        MOCLDY    50  37  61 NE6       29.97R
SARATOGA       FAIR      50  34  53 NE3       29.98R
LARAMIE        FAIR      41  37  86 W6        29.97F
CHEYENNE       FAIR      47  41  80 NW5       29.93R
TORRINGTON     FAIR      53  42  66 NW8       29.85S
PINE BLUFFS    FAIR      46  45  93 W3        29.90F

$$




USA.gov is the U.S. government's official web portal to all federal, state and local government web resources and services.